Terug naar catalogus

STARLINK-35031

ActiefCommunicatieVLEO
NORAD 65404·PAYLOAD·🇺🇸 United States

Gelanceerd Aug 31, 2025 vanaf Cape Canaveral Space Force Station

Loading…

Volgende Passages (komende 24 uur)

TLE

VersSource: CelesTrak SupGP

Epoch: Sep 14, 2026, 14:44 UTC

1 65404C 25192A   26257.61437500 -.00009382  00000+0 -27739-3 0  2577
2 65404  53.1588  81.2541 0001167 100.6168  93.9492 15.34372178    17

Volg STARLINK-35031 in realtime met AllMySat

Download on the App Store